Regional Weather Roundup
Issued by NWS Goodland, KS

Home | Current Version | Previous Version | Graphics & Text | Print | Product List | Glossary On
Versions: 1 2 3 4 5 6 7 8 9 10 11 12 13 14 15 16 17 18 19 20 21 22 23 24 25 26 27 28 29 30 31 32 33 34 35 36 37 38 39 40 41 42 43 44 45 46 47 48 49 50
000
ASUS43 KGLD 230108
RWRGLD

GOODLAND FORECAST AREA HOURLY WEATHER ROUNDUP
NATIONAL WEATHER SERVICE GOODLAND KS
600 PM MST WED NOV 22 2017

...OFFICIAL OBSERVATIONS...

CITY           SKY/WX    TMP DP  RH WIND       PRES   REMARKS
GOODLAND KS    CLOUDY    49  35  58 W8        30.14R
HILL CITY KS   CLEAR     54  34  46 SW7       30.09S
IMPERIAL NEB   CLOUDY    51  36  56 NW7       30.11S
MCCOOK NEB     CLEAR     53  37  54 W9        30.08R
AKRON CO       CLOUDY    52  35  52 N6        30.21R
BURLINGTON CO  CLOUDY    47  33  58 W5        30.18R
LIMON CO       CLOUDY    41  30  65 N6        30.26R
$$

...UNOFFICIAL OBSERVATIONS...

CITY           SKY/WX    TMP DP  RH WIND       PRES   REMARKS
COLBY KS       CLOUDY    46  36  66 W6        30.14R
LENORA KS        N/A     54  32  43 SW7         N/A
NORTON KS      CLEAR     45  28  53 SW7       30.07
SHARON SPRINGS   N/A     48  30  50 W8          N/A
KIT CARSON CO    N/A     52  31  44 CALM        N/A
YUMA CO        FAIR      55  36  47 NW10      30.17R
$$




USA.gov is the U.S. government's official web portal to all federal, state and local government web resources and services.